Powrót do katalogu

STARLINK-37800

AktywnyŁącznośćSSO
NORAD 69436·PAYLOAD·🇺🇸 United States

Wystrzelony Jun 7, 2026 z Vandenberg Space Force Base

Loading…

Następne Przeloty (najbliższe 24 godziny)

TLE

ŚwieżeSource: CelesTrak SupGP

Epoka: Sep 15, 2026, 03:40 UTC

1 69436C 26126S   26258.15326389 -.00011283  00000+0 -35016-3 0  2587
2 69436  97.2850 119.4564 0002034  95.0127 296.7857 15.33452083    13

Śledź STARLINK-37800 w czasie rzeczywistym z AllMySat

Download on the App Store